Flag for Switzerland Weather past 2 weeks in Grenchen, Solothurn, Switzerland

Now
68 °F

Mild.


Feels Like: 68 °F
Forecast: 50 / 68 °F
Wind: 15 mph from Southwest

Location: Grenchen

Current Time: Jul 28, 2015 at 12:43:40 PM

Latest Report: Jul 28, 2015 at 12:00 PM


Visibility: N/A

Pressure: 29.89 "Hg

Humidity: 46%

Dew point: 46 °F

Location of GrenchenLocation

Historic Weather in Grenchen — Graph

°F

Grenchen temperature yesterday

Maximum temperature yesterday: 75 °F (at 4:00 PM)
Minimum temperature yesterday: 56 °F (at 12:00 AM)
Average temperature yesterday: 66 °F

Past Weeks' High & Low Weather Summary

 TemperatureHumidityPressure
High94 °F (Jul 16, 6:00 PM)97% (Jul 19, 4:00 AM)30.20 "Hg (Jul 19, 4:00 AM)
Low51 °F (Jul 26, 7:00 AM)19% (Jul 16, 6:00 PM)29.64 "Hg (Jul 24, 7:00 PM)
Average73 °F61%29.97 "Hg
* Reported Jul 13 11:00 AM — Jul 28 11:00 AM, Grenchen, Weather by CustomWeather, © 2015

Note: Actual official high and low records may vary slightly from our data, if they occured in-between our weather recording intervals... More about our weather records

Advertising

Grenchen weather history for previous 24 hours

 ConditionsComfort  
Time TempWeatherWind HumidityBarometerVisibility
11:00 AM
Tue, Jul 28
66 °FMild.16 mph48%29.90 "HgN/A
10:00 AM66 °FMild.16 mph51%29.90 "HgN/A
9:00 AM64 °FMild.13 mph52%29.90 "HgN/A
8:00 AM63 °FMild.5 mph62%29.90 "HgN/A
7:00 AM61 °FCool.3 mph68%29.90 "HgN/A
6:00 AM62 °FCool.5 mph66%29.88 "HgN/A
4:00 AM63 °FMild.6 mph67%29.88 "HgN/A
3:00 AM62 °FCool.6 mph69%29.88 "HgN/A
2:00 AM62 °FMild.5 mph68%29.88 "HgN/A
1:00 AM64 °FMild.6 mph63%29.88 "HgN/A
12:00 AM66 °FMild.6 mph55%29.87 "HgN/A
10:00 PM
Mon, Jul 27
67 °FMild.6 mph57%29.86 "HgN/A
9:00 PM69 °FMild.13 mph51%29.85 "HgN/A
8:00 PM71 °FMild.12 mph46%29.83 "HgN/A
7:00 PM71 °FMild.14 mph47%29.82 "HgN/A
6:00 PM74 °FMild.16 mph40%29.81 "HgN/A
5:00 PM75 °FMild.21 mph37%29.80 "HgN/A
4:00 PM75 °FMild.21 mph36%29.80 "HgN/A
3:00 PM75 °FMild.24 mph38%29.80 "HgN/A
2:00 PM74 °FMild.26 mph41%29.80 "HgN/A
1:00 PM72 °FMild.25 mph47%29.80 "HgN/A
12:00 PM70 °FMild.24 mph52%29.81 "HgN/A
Weather by CustomWeather, © 2015

See weather overviewHow to use our weather pages